Location: Newark
(11.0000°N, 122.6717°E)
Time: 17:04:01
(UTC+00:00)

STARLINK 1010 - Pass Details

Date: 16 December 2019
Orbit: 347 x 351 km, 53.0° (Epoch: 22 January)

Event Time Altitude Azimuth Distance (km) Brightness Sun altitude
Rises 11:13:58 0° 244° (WSW) 2,140 8.0 -24.7°
Reaches altitude 10° 11:16:32 10° 270° (W) 1,300 6.4 -25.3°
Enters shadow 11:17:43 14° 293° (WNW) 1,082 5.6 -25.5°
Exits shadow 11:52:34 -63° 55° (NE) 11,736 10.4 -33.5°
Maximum altitude 21:03:40 51° 54° (NE) 444 3.3 -13.7°
